Air Resources Laboratory banner image
Air Resources Laboratory web site National Oceanic and Atmospheric Administration (NOAA)

az roundup


Office: PSR

ASUS65 KPSR 121803
RTPPSR


Max/Min Temperature and Precipitation Table for South-central and
Southwest Arizona and Extreme Southeast California
National Weather Service Phoenix AZ
1103 AM MST Wed Dec 12 2018

       Arizona Automated Station Observations

Values represent highs yesterday...lows since 7:00 pm MST yesterday
and 24-hour precipitation ending at 5:00 am MST.

Data reported from automated gauges:
*  Climate Reference Network sites
+  ASOS site maintained by others
   All others are ASOS maintained by the National Weather Service

.BR PSR 1212 MS DH00/TAIRZX/DH08/DVH13/TAVRZN
.BR1 /DH05/PPDRZZ/SFDRZZ/SDIRZZ
:
:                                       Max   Min   24-Hr Snow  Snow
:Id       Station                 Elev  Temp  Temp  Pcpn  Fall  Depth
DVT   :   Phoenix Deer Valley     1476 :  70 / 43 / 0.00 /      /
PHX   :   Phoenix Sky Harbor      1107 :  72 / 46 / 0.00 /      /
SDL   :   Scottsdale Airport      1510 :  71 / 45 / 0.00 /      /
NYL   :+  Yuma Airport             213 :  69 / 44 / 0.00 /      /
RPSA3 :*  Yuma Red Bluff Pavement  600 :  67 / 40 / 0.00 /      /
.END

       Arizona Cooperative Observations

Values reported below are 24-hour readings taken at the noted
local observation time.
Data provided by National Weather Service cooperative observers

.BR PSR 1212 MS DH07/TAIRZX/TAIRZN/PPDRZZ/SFDRZZ/SDIRZZ
:
:                              Obs     Max   Min    24-Hr  Snow  Snow
:Id    Station         Elev    Time    Temp  Temp   Pcpn   Fall Depth
ACYA3 :Arizona City    1525: DHM   /     M /   M /     M/    M/    M
CLGA3 :Coolidge        1419: DHM   /     M /   M /     M/    M/    M
FHLA3 :Fountain Hills  1575: DH0700/    68 /  46 /  0.00/    M/    M
GLEA3 :Globe           3660: DH0800/    55 /  35 /  0.00/    M/    M
PARA3 :Parker           375: DH0945/    65 /  42 /  0.00/    M/    M
ROOA3 :Roosevelt 1WNW  2205: DHM   /     M /   M /     M/    M/    M
TACA3 :Tacna            324: DH1000/    71 /  33 /  0.00/    M/    M
.END

       California Automated Station Observations

Values represent highs yesterday.
lows since 7:00 pm PST / 8:00 pm PDT yesterday
and 24-hour precipitation ending at 4:00 am PST / 5:00 am PDT.

Data reported from automated gauges:
*  Climate Reference Network sites
+  ASOS site maintained by others
   All others are ASOS maintained by the National Weather Service

.BR PSR 1212 PS DH00/TAIRZX/DH07/DVH12/TAVRZN
.BR1 /DH04/PPDRZZ/SFDRZZ/SDIRZZ
:
:                                       Max   Min   24-Hr Snow  Snow
:Id       Station                 Elev  Temp  Temp  Pcpn  Fall  Depth
BLH   :   Blythe Airport           392 :   M /  M /    M /      /
IPL   :   Imperial Airport         -56 :  70 / 45 / 0.00 /      /
.END

       California Cooperative Observations

Values reported below are 24-hour readings taken at the noted
local observation time.
Data provided by National Weather Service Cooperative Observers

.BR PSR 1212 P DH07/TAIRZX/TAIRZN/PPDRZZ/SFDRZZ/SDIRZZ
:
:                              Obs     Max   Min    24-Hr  Snow  Snow
:Id    Station         Elev    Time    Temp  Temp   Pcpn   Fall Depth
RCOC1 :Chiriaco Summit 1706: DH0800/    65 /  42 /  0.00/    M/    M
EGLC1 :Eagle Mountain   973: DHM   /     M /   M /     M/    M/    M
ELCC1 :El Centro        -30: DH0900/    72 /  43 /  0.00/    M/    M
.END

These data are preliminary and have not undergone final quality
control by the National Climatic Data Center /NCDC/. Therefore...
these data are subject to revision. Final and certified climate data
can be accessed at www.ncdc.noaa.gov.

$$


ASUS65 KPSR 121803
RTPAZ


Max/Min Temperature and Precipitation Table for Arizona
National Weather Service Phoenix AZ
1103 AM MST Wed Dec 12 2018

Values represent highs yesterday...lows since 7:00 pm yesterday
and 24-hour precipitation ending at 5:00 am MST.

Data reported from automated gauges:
*  Climate Reference Network sites
+  ASOS site maintained by others
   All others are ASOS maintained by the National Weather Service

.BR PSR 1212 MS DH00/TAIRZX/DH08/DVH13/TAVRZN
.BR1 /DH05/PPDRZZ/SFDRZZ/SDIRZZ
:
:                                        Max  Min   24-Hr  Snow Snow
:Id       Station                 Elev  Temp  Temp  Pcpn   Fall Depth
DUG   :   Bisbee-Douglas Airport  4100 :  59 / 36 / 0.00 /      /
DMA   :+  Davis-Monthan AFB       2675 :  74 / 44 / 0.00 /      /
ADRA3 :*  Elgin                   4858 :  64 / 36 / 0.00 /      /
FLG   :   Flagstaff Airport       7003 :  52 / 21 / 0.00 /  0.0 /   0
GCN   :   Grand Canyon Airport    6606 :  54 / 18 / 0.00 /      /
IGM   :   Kingman Airport         3446 :  62 / 34 / 0.00 /      /
OLS   :   Nogales Intl Airport    3930 :  67 / 41 / 0.00 /      /
PGA   :   Page Airport            4310 :  50 / 31 / 0.00 /      /
DVT   :   Phoenix Deer Valley     1476 :  70 / 43 / 0.00 /      /
PHX   :   Phoenix Sky Harbor      1107 :  72 / 46 / 0.00 /      /
ALK   :   Pioneer Airfield        4654 :  64 / 41 / 0.00 /      /
PRC   :   Prescott Airport        5052 :  62 / 26 / 0.00 /      /
SAD   :   Safford Airport         3170 :  61 / 35 / 0.00 /      /
SJN   :   Saint Johns Airport     5733 :  57 / 21 / 0.00 /      /
SDL   :   Scottsdale Airport      1510 :  71 / 45 / 0.00 /      /
SEZ   :+  Sedona Airport          4830 :  61 / 41 /    M /      /
SDMA3 :*  Sonora Desert Museum    2768 :  72 / 44 / 0.00 /      /
TUS   :   Tucson Intl Airport     2550 :  72 / 46 / 0.00 /      /
BBRA3 :*  Valle                   5990 :  54 / 25 / 0.00 /      /
RQE   :   Window Rock Airport     6739 :  54 / 20 / 0.00 /      /
INW   :   Winslow Airport         4886 :  57 / 23 / 0.00 /      /
NYL   :+  Yuma Airport             213 :  69 / 44 / 0.00 /      /
RPSA3 :*  Yuma Red Bluff Pavement  600 :  67 / 40 / 0.00 /      /
.END

Values reported below are 24-hour readings taken at the noted
Mountain Standard observation time.
Data provided by National Weather Service Cooperative Observers

.BR PSR 1212 MS DH07/TAIRZX/TAIRZN/PPDRZZ/SFDRZZ/SDIRZZ
:
:                              Obs     Max   Min    24-Hr  Snow  Snow
:Id    Station         Elev    Time    Temp  Temp   Pcpn   Fall Depth
ACYA3: Arizona City    1525: DHM   /     M /   M /     M/    M/    M
BDDA3: Bagdad          3955: DHM   /     M /   M /     M/    M/    M
BEVA3: Beaver Dam      1875: DH0809/    68 /  35 /  0.00/  0.0/    0
BRGA3: Blue Ridge RS   6880: DH0800/    55 /  24 /  0.00/  0.0/    0
CATA3: Catalina SP     2735: DH0655/    72 /  42 /  0.00/    M/    M
CLGA3: Coolidge        1419: DHM   /     M /   M /     M/    M/    M
DMRA3: Diamond M Ranch 5492: DH0800/    62 /  24 /  0.00/  0.0/    0
FHLA3: Fountain Hills  1575: DH0700/    68 /  46 /  0.00/    M/    M
GLEA3: Globe           3660: DH0800/    55 /  35 /  0.00/    M/    M
GCVA3: Grnd Cnyn Vis C 7080: DH0830/    49 /  33 /  0.00/    M/    M
JRMA3: Jerome          4950: DH0800/    55 /  40 /  0.00/  0.0/    0
KARA3: Kartchner Cave  6790: DH0600/    59 /  41 /  0.00/    M/    M
LHCA3: Lake Havasu City 480: DHM   /     M /   M /     M/    M/    M
LEMA3: Mt Lemmon FD    7886: DH1000/    47 /  35 /  0.00/    M/    M
PDSA3: Paradise        5470: DH0800/    52 /  31 /  0.00/  0.0/    0
PARA3: Parker           375: DH0945/    65 /  42 /  0.00/    M/    M
PATA3: Patagonia Paton 4044: DH0805/    66 /  31 /  0.00/    M/    M
PICA3: Picacho Peak    1830: DHM   /     M /   M /     M/    M/    M
PIPA3: Pipe Spring NM  4920: DH0800/    56 /  23 /  0.00/  0.0/    0
PSTA3: Prescott        5205: DH0702/    61 /  26 /  0.00/  0.0/    0
ROOA3: Roosevelt 1WNW  2205: DHM   /     M /   M /     M/    M/    M
SAFA3: Safford Ag Stat 2955: DHM   /     M /   M /     M/    M/    M
SGUA3: Saguaro Natl Pa 3085: DH0830/    72 /  43 /  0.00/    M/    M
SEVA3: Sierra Vista    4600: DH0730/    58 /  36 /  0.00/    M/    M
SMTA3: Sunrise Mountai 9370: DH0800/    48 /  12 /  0.00/  0.0/    M
SCIA3: Sunset Crater   6980: DH0900/    53 /  15 /  0.00/  0.0/    2
TACA3: Tacna            324: DH1000/    71 /  33 /  0.00/    M/    M
TCHA3: Tohono Chul Par 2525: DH0700/    72 /  43 /  0.00/    M/    M
WALA3: Walnut Canyon   6685: DH0845/    55 /  29 /  0.00/  0.0/    0
WUPA3: Wikieup         2010: DH0533/    73 /  37 /  0.00/    M/    M
WILA3: Willcox         4175: DH0710/    62 /  34 /  0.00/    M/    M
WCSA3: Willow Canyon   7027: DH0800/    53 /  37 /  0.00/    M/    M
WPTA3: Wupatki         4908: DH0900/    50 /  28 /  0.00/  0.0/    0
YUCA3: Yucca           1950: DHM   /     M /   M /     M/    M/    M
.END

These data are preliminary and have not undergone final quality
control by the National Climatic Data Center /NCDC/. Therefore...
these data are subject to revision. Final and certified climate data
can be accessed at www.ncdc.noaa.gov.

$$


ASUS45 KPSR 121810
RWRAZ

ARIZONA HOURLY REGIONAL WEATHER ROUNDUP
NATIONAL WEATHER SERVICE PHOENIX AZ
1100 AM MST WED DEC 12 2018

NOTE: FAIR INDICATES FEW OR NO CLOUDS BELOW 12,000 FEET WITH NO
SIGNIFICANT WEATHER AND/OR OBSTRUCTIONS TO VISIBILITY.

AZZ001>003-036-121900-
NORTHWEST ARIZONA

CITY           SKY/WX    TMP DP  RH WIND       PRES   REMARKS
BULLHEAD CITY  MOSUNNY   55  34  44 CALM      30.12R
KINGMAN        SUNNY     58  29  33 SW13      30.10R
6HR MIN TEMP:  34; 6HR MAX TEMP:  58;

$$

AZZ004>008-015-016-018-121900-
NORTH CENTRAL ARIZONA

CITY           SKY/WX    TMP DP  RH WIND       PRES   REMARKS
GRAND CANYON   SUNNY     45  27  49 SW10G25   30.10F
6HR MIN TEMP:  18; 6HR MAX TEMP:  45;

WILLIAMS       SUNNY     46  19  34 SW10G21   30.11
PRESCOTT       SUNNY     50  31  48 CALM      30.12R
6HR MIN TEMP:  26; 6HR MAX TEMP:  50;

FLAGSTAFF      MOSUNNY   44  27  51 SW17      30.12R
6HR MIN TEMP:  21; 6HR MAX TEMP:  44;

PAYSON         MOSUNNY   52  32  46 CALM      30.13
PAGE           SUNNY     42  30  62 N3        30.02F
6HR MIN TEMP:  31; 6HR MAX TEMP:  42;

$$

AZZ009>014-017-121900-
NORTHEAST ARIZONA

CITY           SKY/WX    TMP DP  RH WIND       PRES   REMARKS
WINSLOW        PTSUNNY   46  28  49 E6        30.06F
6HR MIN TEMP:  24; 6HR MAX TEMP:  46;

SAINT JOHNS    SUNNY     48  28  46 SE3       30.04F
6HR MIN TEMP:  21; 6HR MAX TEMP:  48;

WINDOW ROCK    SUNNY     48  30  49 SW15      30.05F
6HR MIN TEMP:  20; 6HR MAX TEMP:  48;

SHOW LOW       SUNNY     48  30  49 S20G25    30.09F
$$

AZZ540-542>544-546-548-121900-
GREATER PHOENIX AREA

CITY           SKY/WX    TMP DP  RH WIND       PRES   REMARKS
PHOENIX        PTSUNNY   56  42  59 CALM      30.07R
6HR MIN TEMP:  46; 6HR MAX TEMP:  57;

GLENDALE       MOSUNNY   55  43  62 W3        30.12R
LUKE AFB       MOSUNNY   56  43  62 CALM      30.09R
6HR MIN TEMP:  41; 6HR MAX TEMP:  56;

DEER VALLEY    PTSUNNY   57  39  51 W5        30.10R
6HR MIN TEMP:  43; 6HR MAX TEMP:  57;

SCOTTSDALE     PTSUNNY  N/A N/A N/A MISG      30.10R
MESA-FALCON    MOSUNNY   59  39  47 S5        30.08R
6HR MIN TEMP:  45; 6HR MAX TEMP:  59;

MESA-GATEWAY   PTSUNNY   57  43  58 SE8       30.07F
CHANDLER       PTSUNNY   59  41  51 VRB5      30.07S
$$

AZZ539-553-121900-
SOUTHWEST MARICOPA COUNTY AND PINAL COUNTY

CITY           SKY/WX    TMP DP  RH WIND       PRES   REMARKS
CASA GRANDE    MOSUNNY   57  43  59 SE3       30.07F
6HR MIN TEMP:  39; 6HR MAX TEMP:  57;

GILA BEND      MOSUNNY   57  45  62 N6        30.09R
$$

AZZ503-504-507>509-121900-
SOUTHEAST ARIZONA

CITY           SKY/WX    TMP DP  RH WIND       PRES   REMARKS
TUCSON         PTSUNNY   60  40  47 NW5       30.10R
6HR MIN TEMP:  46; 6HR MAX TEMP:  61;

DAVIS-MONTHAN  PTSUNNY   61  40  46 NW6       30.09
6HR MIN TEMP:  44; 6HR MAX TEMP:  61;

RYAN FIELD     SUNNY     61  39  44 NW5       30.11R
NOGALES        SUNNY     60  35  39 VRB7      30.09F
6HR MIN TEMP:  41; 6HR MAX TEMP:  61;

SIERRA VISTA   MOSUNNY   58  35  43 SW8       30.11
6HR MIN TEMP:  42; 6HR MAX TEMP:  58;

DOUGLAS        SUNNY     58  42  55 CALM      30.10S
6HR MIN TEMP:  36; 6HR MAX TEMP:  58;

SAFFORD        SUNNY     52  36  54 CALM      30.07F
6HR MIN TEMP:  35; 6HR MAX TEMP:  52;

$$

AZZ532-121900-
SOUTHWEST ARIZONA

CITY           SKY/WX    TMP DP  RH WIND       PRES   REMARKS
YUMA           MOSUNNY   59  43  55 E5        30.08S
6HR MIN TEMP:  44; 6HR MAX TEMP:  59;

$$

CAZ041-043-047-048-061-525>527-560>570-121900-
SOUTHERN CALIFORNIA

CITY           SKY/WX    TMP DP  RH WIND       PRES   REMARKS
DOWNTOWN L.A.  PTSUNNY   59  50  72 E3        30.12S HAZE
6HR MIN TEMP:  54; 6HR MAX TEMP:  59;

L.A. AIRPORT   PTSUNNY   61  54  77 E10       30.12S HAZE
6HR MIN TEMP:  52; 6HR MAX TEMP:  61;

SAN DIEGO      PTSUNNY   61  49  64 S5        30.15S
6HR MIN TEMP:  54; 6HR MAX TEMP:  61;

BURBANK        MOSUNNY   56  50  80 SE9       30.12S
6HR MIN TEMP:  44; 6HR MAX TEMP:  56;

ONTARIO        PTSUNNY   56  44  64 CALM      30.12S HAZE
6HR MIN TEMP:  44; 6HR MAX TEMP:  56;

RIVERSIDE      MOSUNNY   55  43  63 CALM      30.13S
6HR MIN TEMP:  43; 6HR MAX TEMP:  56;

PALM SPRINGS   SUNNY     63  37  38 VRB5      30.08R
6HR MIN TEMP:  48; 6HR MAX TEMP:  63;

EL CENTRO NAS  MOSUNNY   59  45  59 SE5       30.08S
6HR MIN TEMP:  44; 6HR MAX TEMP:  59;

IMPERIAL       SUNNY     59  44  57 CALM      30.06S
6HR MIN TEMP:  45; 6HR MAX TEMP:  59;

NEEDLES        SUNNY     56  37  49 CALM      30.10R
6HR MIN TEMP:  45; 6HR MAX TEMP:  56;

$$

NVZ020-UTZ003-121900-
SOUTHERN NEVADA-UTAH

CITY           SKY/WX    TMP DP  RH WIND       PRES   REMARKS
LAS VEGAS      MOSUNNY   55  28  35 CALM      30.11R
6HR MIN TEMP:  43; 6HR MAX TEMP:  55;

SALT LAKE CITY LGT SNOW  30  28  92 CALM      30.11  FOG
6HR MIN TEMP:  29; 6HR MAX TEMP:  31; 6HR PCP:  0.08;

$$

NMZ009-TXZ055-121900-
NEW MEXICO-WEST TEXAS

CITY           SKY/WX    TMP DP  RH WIND       PRES   REMARKS
ALBUQUERQUE    MOSUNNY   41  23  48 SW7       30.03F
6HR MIN TEMP:  23; 6HR MAX TEMP:  41;

EL PASO        PTSUNNY   51  36  56 S6        30.04F
6HR MIN TEMP:  41; 6HR MAX TEMP:  52; 6HR PCP: TRACE;

$$


........................KEY........................
SKY/WX - SKY CONDITION/WEATHER
TMP    - TEMPERATURE IN FAHRENHEIT
DP     - DEW POINT IN FAHRENHEIT
RH     - RELATIVE HUMIDITY IN PERCENT
WIND   - DIRECTION AND SPEED IN MILES PER HOUR (MPH)
VRB    - VARIABLE WIND DIRECTION
PRES   - MEAN SEA LEVEL PRESSURE IN INCHES OF MERCURY
         F - FALLING PRESSURE   R - RISING PRESSURE
         S - STEADY PRESSURE
VSB    - VISIBILITY IN MILES
HX     - HEAT INDEX IN FAHRENHEIT
WCI    - WIND CHILL INDEX IN FAHRENHEIT
TC     - TEMPERATURE IN CELSIUS WHICH IS ALSO KNOWN AS
         TEMPERATURE IN CENTIGRADE
AFB    - AIR FORCE BASE
         LUKE AFB IS LUKE AIR FORCE BASE
         DAVIS-MONTHAN IS DAVIS-MONTHAN AIR FORCE BASE
NAS    - NAVAL AIR STATION
         EL CENTRO NAS IS EL CENTRO NAVAL AIR STATION
N/A    - NOT AVAILABLE